This is the latest recevied weather packets stored in our database for station/object KC3AWA. If no packets are shown the sender has not sent any weather packets the latest 1 day(s).
| Time | Temp. | Humidity | Pressure | Rain* | Wind** | Luminosity | Snow |
|---|---|---|---|---|---|---|---|
| 1778016679 | 18.89° C | 63% | 1008.4 hPa | 0 mm | 0.89 m/s, 308° | 33 W/m² | - |
| 1778016375 | 19.44° C | 59% | 1008.2 hPa | 0 mm | 0.89 m/s, 305° | 40 W/m² | - |
| 1778016073 | 19.44° C | 58% | 1008.4 hPa | 0 mm | 0 m/s | 82 W/m² | - |
| 1778015769 | 19.44° C | 58% | 1008.3 hPa | 0 mm | 0.89 m/s, 349° | 90 W/m² | - |
| 1778015467 | 19.44° C | 58% | 1008.1 hPa | 0 mm | 0.89 m/s, 328° | 110 W/m² | - |
| 1778015163 | 19.44° C | 58% | 1008.2 hPa | 0 mm | 1.34 m/s, 178° | 120 W/m² | - |
| 1778014860 | 19.44° C | 60% | 1008.3 hPa | 0 mm | 1.79 m/s, 359° | 90 W/m² | - |
| 1778014558 | 19.44° C | 57% | 1008.3 hPa | 0 mm | 0.45 m/s, 261° | 85 W/m² | - |
| 1778014255 | 19.44° C | 57% | 1008.2 hPa | 0 mm | 0.89 m/s, 277° | 118 W/m² | - |
| 1778013952 | 19.44° C | 58% | 1008.3 hPa | 0 mm | 1.79 m/s, 150° | 140 W/m² | - |
| 1778013650 | 19.44° C | 58% | 1008.3 hPa | 0 mm | 0.89 m/s, 72° | 155 W/m² | - |
| 1778013346 | 19.44° C | 57% | 1008.3 hPa | 0 mm | 3.13 m/s, 228° | 163 W/m² | - |
| 1778013043 | 19.44° C | 58% | 1008.3 hPa | 0 mm | 1.34 m/s, 199° | 115 W/m² | - |
| 1778012739 | 19.44° C | 56% | 1008.3 hPa | 0 mm | 2.68 m/s, 209° | 122 W/m² | - |
| 1778012435 | 19.44° C | 58% | 1008.6 hPa | 0 mm | 1.34 m/s, 226° | 94 W/m² | - |
| 1778012132 | 19.44° C | 56% | 1008.5 hPa | 0 mm | 0.45 m/s, 200° | 103 W/m² | - |
| 1778011830 | 20° C | 55% | 1008.2 hPa | 0 mm | 3.13 m/s, 222° | 108 W/m² | - |
| 1778011528 | 20° C | 55% | 1008.5 hPa | 0 mm | 3.58 m/s, 219° | 116 W/m² | - |
| 1778011224 | 20° C | 55% | 1008.3 hPa | 0 mm | 3.13 m/s, 160° | 134 W/m² | - |
| 1778010920 | 19.44° C | 56% | 1008.3 hPa | 0 mm | 0.45 m/s, 243° | 97 W/m² | - |
| 1778010618 | 19.44° C | 56% | 1008.5 hPa | 0 mm | 2.24 m/s, 166° | 53 W/m² | - |
| 1778010315 | 20° C | 56% | 1008.4 hPa | 0 mm | 2.68 m/s, 229° | 28 W/m² | - |
| 1778010010 | 20° C | 56% | 1008.4 hPa | 0 mm | 1.34 m/s, 236° | 30 W/m² | - |
| 1778009708 | 20° C | 56% | 1008.5 hPa | 0 mm | 2.24 m/s, 244° | 97 W/m² | - |
| 1778009405 | 20.56° C | 55% | 1008.8 hPa | 0 mm | 2.24 m/s, 232° | 95 W/m² | - |
* Rain latest hour (hover to see other rain measurements)
** Current wind speed in m/s (hover to see current wind gust speed)